Satellite-Ground Cal/Val Site Overpasses Predictions

Prediction of Satellite NPP Overpassing Cal/Val Site: Antarctic Dome C

Ground Cal/Val Site Location: Latitude: -75.10, Longitude: 123.35; Satellite-Ground Site NADIR distance within 100 km.

Table of predicted overpasses for the next 14.0 days since TLE Epoch: 11/23/2018
Interval Starting Time Ending Time Minimum Distance Time Minimum Distance (km)
1 11/24/2018 07:25:38 11/24/2018 07:26:05 11/24/2018 07:25:52 33.73
2 11/26/2018 15:08:05 11/26/2018 15:08:12 11/26/2018 15:08:09 96.41
3 11/27/2018 14:49:05 11/27/2018 14:49:34 11/27/2018 14:49:19 14.90
4 11/29/2018 07:31:54 11/29/2018 07:32:23 11/29/2018 07:32:09 4.56
5 12/02/2018 14:55:20 12/02/2018 14:55:49 12/02/2018 14:55:35 21.76
6 12/03/2018 14:36:39 12/03/2018 14:36:53 12/03/2018 14:36:46 85.33
7 12/04/2018 07:38:11 12/04/2018 07:38:38 12/04/2018 07:38:24 39.30
8 12/05/2018 07:19:25 12/05/2018 07:19:45 12/05/2018 07:19:35 70.57


NCC Satellite Cal/Val Overpasses Prediction Service
